• In Romania
  • List of Countries
  • For 7 days
  • Water Temperature
  • Satellite Maps
  • Weather Map
  • Weather Widgets
  • user-avatar
    Login

    Hourly Weather Booué

    Today, 28 May, Monday

    Time Temperature Precipitation Wind Pressure Humidity
    00:00 +25°C° 0.2 mm 1 mps 736 mmHg 94%
    01:00 +25°C° 0.2 mm 1 mps 736 mmHg 95%
    02:00 +24°C° 0.2 mm 1 mps 736 mmHg 96%
    03:00 +24°C° 0.2 mm 1 mps 735 mmHg 97%
    04:00 +24°C° 0.2 mm 1 mps 735 mmHg 97%
    05:00 +24°C° 0 mm 1 mps 735 mmHg 96%
    06:00 +24°C° 0 mm 1 mps 736 mmHg 95%
    07:00 +24°C° 0 mm 1 mps 736 mmHg 95%
    08:00 +26°C° 0 mm 1 mps 736 mmHg 89%
    09:00 +27°C° 0 mm 1 mps 736 mmHg 83%
    10:00 +28°C° 0 mm 1 mps 737 mmHg 78%
    11:00 +29°C° 0.2 mm 1 mps 736 mmHg 74%
    12:00 +30°C° 0.2 mm 1 mps 736 mmHg 70%
    13:00 +31°C° 0.2 mm 1 mps 735 mmHg 66%
    14:00 +31°C° 0.4 mm 1 mps 735 mmHg 66%
    15:00 +31°C° 0.4 mm 1 mps 734 mmHg 66%
    16:00 +31°C° 0.4 mm 1 mps 734 mmHg 65%
    17:00 +30°C° 0.5 mm 1 mps 734 mmHg 74%
    18:00 +28°C° 0.5 mm 1 mps 734 mmHg 82%
    19:00 +26°C° 0.5 mm 1 mps 735 mmHg 91%
    20:00 +26°C° 0.3 mm 1 mps 735 mmHg 92%
    21:00 +25°C° 0.3 mm 1 mps 735 mmHg 92%
    22:00 +25°C° 0.3 mm 1 mps 736 mmHg 93%
    23:00 +25°C° 0 mm 1 mps 736 mmHg 94%

    Tomorrow, 29 May, Tuesday

    Time Temperature Precipitation Wind Pressure Humidity
    00:00 +25°C° 0 mm 1 mps 736 mmHg 94%
    01:00 +24°C° 0 mm 1 mps 736 mmHg 95%
    02:00 +24°C° 0 mm 1 mps 735 mmHg 95%
    03:00 +24°C° 0 mm 1 mps 735 mmHg 96%
    04:00 +24°C° 0 mm 1 mps 735 mmHg 96%
    05:00 +24°C° 0 mm 1 mps 735 mmHg 96%
    06:00 +24°C° 0 mm 1 mps 735 mmHg 95%
    07:00 +24°C° 0 mm 1 mps 736 mmHg 94%
    08:00 +26°C° 0 mm 1 mps 736 mmHg 87%
    09:00 +27°C° 0 mm 1 mps 736 mmHg 81%
    10:00 +29°C° 0 mm 1 mps 737 mmHg 74%
    11:00 +30°C° 0.8 mm 1 mps 736 mmHg 70%
    12:00 +31°C° 0.8 mm 1 mps 736 mmHg 66%
    13:00 +32°C° 0.8 mm 1 mps 735 mmHg 62%
    14:00 +32°C° 1.1 mm 1 mps 734 mmHg 65%
    15:00 +31°C° 1.1 mm 1 mps 733 mmHg 69%
    16:00 +30°C° 1.1 mm 1 mps 733 mmHg 73%
    17:00 +29°C° 0.7 mm 1 mps 733 mmHg 80%
    18:00 +27°C° 0.7 mm 1 mps 734 mmHg 86%
    19:00 +26°C° 0.7 mm 1 mps 734 mmHg 93%
    20:00 +25°C° 0.3 mm 1 mps 735 mmHg 93%
    21:00 +25°C° 0.3 mm 1 mps 735 mmHg 93%
    22:00 +25°C° 0.3 mm 1 mps 736 mmHg 94%
    23:00 +25°C° 0.1 mm 1 mps 736 mmHg 94%

    Day after tomorrow, 30 May, Wednesday

    Time Temperature Precipitation Wind Pressure Humidity
    00:00 +25°C° 0.1 mm 1 mps 735 mmHg 95%
    01:00 +24°C° 0.1 mm 1 mps 735 mmHg 96%
    02:00 +24°C° 0 mm 1 mps 735 mmHg 96%
    03:00 +24°C° 0 mm 1 mps 734 mmHg 97%
    04:00 +24°C° 0 mm 1 mps 734 mmHg 98%
    05:00 +22°C° 0 mm 0 mps 734 mmHg 97%
    06:00 +22°C° 0 mm 0 mps 735 mmHg 97%
    07:00 +22°C° 0 mm 0 mps 735 mmHg 96%
    08:00 +24°C° 0 mm 0 mps 735 mmHg 87%
    09:00 +26°C° 0 mm 0 mps 736 mmHg 79%
    10:00 +28°C° 0 mm 0 mps 736 mmHg 70%
    11:00 +30°C° 0 mm 0 mps 736 mmHg 63%
    12:00 +32°C° 0 mm 0 mps 735 mmHg 56%
    13:00 +36°C° 0 mm 1 mps 735 mmHg 49%
    14:00 +33°C° 0.4 mm 0 mps 734 mmHg 52%
    15:00 +32°C° 0.4 mm 0 mps 733 mmHg 55%
    16:00 +31°C° 0.4 mm 0 mps 732 mmHg 59%
    17:00 +31°C° 0.8 mm 1 mps 733 mmHg 68%
    18:00 +29°C° 0.8 mm 1 mps 733 mmHg 78%
    19:00 +27°C° 0.8 mm 1 mps 734 mmHg 88%
    20:00 +26°C° 0.9 mm 1 mps 734 mmHg 90%
    21:00 +26°C° 0.9 mm 1 mps 735 mmHg 92%
    22:00 +25°C° 0.9 mm 1 mps 736 mmHg 94%
    23:00 +25°C° 0.4 mm 1 mps 735 mmHg 95%

    31 May, Thursday

    Time Temperature Precipitation Wind Pressure Humidity
    00:00 +25°C° 0.4 mm 1 mps 735 mmHg 95%
    01:00 +25°C° 0.4 mm 1 mps 735 mmHg 96%
    02:00 +25°C° 0 mm 1 mps 735 mmHg 96%
    03:00 +24°C° 0 mm 1 mps 734 mmHg 97%
    04:00 +24°C° 0 mm 1 mps 734 mmHg 97%
    05:00 +24°C° 0 mm 1 mps 734 mmHg 97%
    06:00 +25°C° 0 mm 1 mps 735 mmHg 96%
    07:00 +25°C° 0 mm 1 mps 735 mmHg 95%
    08:00 +26°C° 0 mm 1 mps 736 mmHg 89%
    09:00 +27°C° 0 mm 1 mps 736 mmHg 82%
    10:00 +29°C° 0 mm 1 mps 737 mmHg 76%
    11:00 +30°C° 0 mm 1 mps 736 mmHg 70%
    12:00 +31°C° 0 mm 1 mps 735 mmHg 64%
    13:00 +33°C° 0 mm 1 mps 734 mmHg 59%
    14:00 +32°C° 0.2 mm 1 mps 734 mmHg 61%
    15:00 +32°C° 0.2 mm 1 mps 733 mmHg 64%
    16:00 +32°C° 0.2 mm 1 mps 733 mmHg 66%
    17:00 +28°C° 0.5 mm 0 mps 733 mmHg 72%
    18:00 +27°C° 0.5 mm 0 mps 734 mmHg 78%
    19:00 +25°C° 0.5 mm 0 mps 734 mmHg 84%
    20:00 +25°C° 0.7 mm 0 mps 735 mmHg 85%
    21:00 +25°C° 0.7 mm 0 mps 735 mmHg 87%
    22:00 +24°C° 0.7 mm 0 mps 736 mmHg 88%
    23:00 +24°C° 0.2 mm 0 mps 735 mmHg 90%

    1 June, Friday

    Time Temperature Precipitation Wind Pressure Humidity
    00:00 +24°C° 0.2 mm 0 mps 735 mmHg 92%
    01:00 +23°C° 0.2 mm 0 mps 734 mmHg 93%
    02:00 +23°C° 0 mm 0 mps 734 mmHg 94%
    03:00 +23°C° 0 mm 0 mps 734 mmHg 94%
    04:00 +23°C° 0 mm 0 mps 733 mmHg 94%
    05:00 +25°C° 0 mm 1 mps 734 mmHg 94%
    06:00 +25°C° 0 mm 1 mps 734 mmHg 94%
    07:00 +25°C° 0 mm 1 mps 735 mmHg 94%
    08:00 +27°C° 0 mm 1 mps 735 mmHg 87%
    09:00 +28°C° 0 mm 1 mps 736 mmHg 80%
    10:00 +30°C° 0 mm 1 mps 736 mmHg 74%
    11:00 +31°C° 0.4 mm 1 mps 736 mmHg 71%
    12:00 +32°C° 0.4 mm 1 mps 735 mmHg 67%
    13:00 +33°C° 0.4 mm 1 mps 734 mmHg 64%
    14:00 +32°C° 0.6 mm 1 mps 734 mmHg 65%
    15:00 +32°C° 0.6 mm 1 mps 733 mmHg 67%
    16:00 +32°C° 0.6 mm 1 mps 733 mmHg 68%
    17:00 +30°C° 0.1 mm 1 mps 733 mmHg 75%
    18:00 +29°C° 0.1 mm 1 mps 734 mmHg 81%
    19:00 +27°C° 0.1 mm 1 mps 734 mmHg 88%
    20:00 +27°C° 0 mm 1 mps 734 mmHg 89%
    21:00 +26°C° 0 mm 1 mps 735 mmHg 90%
    22:00 +26°C° 0 mm 1 mps 735 mmHg 91%
    23:00 +26°C° 0 mm 1 mps 735 mmHg 91%

    2 June, Saturday

    Time Temperature Precipitation Wind Pressure Humidity
    00:00 +26°C° 0 mm 1 mps 735 mmHg 91%
    01:00 +26°C° 0 mm 2 mps 735 mmHg 91%
    02:00 +25°C° 0 mm 1 mps 735 mmHg 92%
    03:00 +25°C° 0 mm 1 mps 734 mmHg 94%
    04:00 +25°C° 0 mm 1 mps 734 mmHg 95%
    05:00 +25°C° 0 mm 1 mps 735 mmHg 95%
    06:00 +25°C° 0 mm 1 mps 735 mmHg 94%
    07:00 +25°C° 0 mm 1 mps 736 mmHg 94%
    08:00 +27°C° 0.1 mm 1 mps 736 mmHg 88%
    09:00 +28°C° 0.1 mm 1 mps 736 mmHg 82%
    10:00 +29°C° 0.1 mm 1 mps 736 mmHg 75%
    11:00 +30°C° 0.4 mm 1 mps 736 mmHg 72%
    12:00 +31°C° 0.4 mm 1 mps 735 mmHg 70%
    13:00 +32°C° 0.4 mm 1 mps 734 mmHg 67%
    14:00 +31°C° 1.1 mm 1 mps 734 mmHg 71%
    15:00 +31°C° 1.1 mm 1 mps 733 mmHg 75%
    16:00 +30°C° 1.1 mm 1 mps 733 mmHg 79%
    17:00 +29°C° 0.7 mm 1 mps 733 mmHg 83%
    18:00 +28°C° 0.7 mm 1 mps 734 mmHg 88%
    19:00 +26°C° 0.7 mm 1 mps 734 mmHg 92%
    20:00 +24°C° 0.1 mm 0 mps 734 mmHg 93%
    21:00 +24°C° 0.1 mm 0 mps 735 mmHg 93%
    22:00 +24°C° 0.1 mm 0 mps 735 mmHg 94%
    23:00 +25°C° 0.5 mm 1 mps 735 mmHg 94%
    Show more